Location: Astronomy Club of Akron Observatory
(40.9700°N, 81.5606°W)
Time: 05:06:30
(UTC-04:00)

ATLAS 2AS CENTAUR R/B - Visible Passes

Search period start: 25 May 2016 00:00
Search period end: 04 June 2016 00:00
Orbit: 904 x 1308 km, 63.7° (Epoch: 01 May)

Date Brightness Start Highest point End Pass type
(mag) Time Alt. Az. Time Alt. Az. Time Alt. Az.
29 May 5.4 04:51:43 10° ESE 04:53:56 11° E 04:56:10 10° E visible
31 May 4.7 05:08:21 10° SSE 05:14:21 27° ESE 05:20:43 10° NE visible
01 Jun 5.1 04:25:46 10° SE 04:30:06 17° ESE 04:34:35 10° ENE visible
03 Jun 4.2 04:44:04 10° S 04:50:39 36° ESE 04:57:42 10° NE visible
